Flag for Italy Weather past 2 weeks in Verona, Italy

Now
75 °F

Clear.


Feels Like: 75 °F
Forecast: 78 / 96 °F
Wind: 1 mph from North

Location: Verona / Villafranca

Current Time: Jul 6, 2015 at 7:40:29 AM

Latest Report: Jul 6, 2015 at 6:50 AM


Visibility: 4 mi

Pressure: 30.04 "Hg

Humidity: 83%

Dew point: 70 °F

Location of VeronaLocation

Historic Weather in Verona — Graph

°F

Verona temperature yesterday

Maximum temperature yesterday: 93 °F (at 3:50 PM)
Minimum temperature yesterday: 72 °F (at 5:50 AM)
Average temperature yesterday: 84 °F

Past Weeks' High & Low Weather Summary

 TemperatureHumidityPressure
High93 °F (Jul 5, 3:50 PM)100% (Jun 23, 6:45 AM)30.27 "Hg (Jun 23, 6:45 AM)
Low57 °F (Jun 24, 2:15 AM)21% (Jul 1, 4:15 PM)29.71 "Hg (Jun 23, 6:15 PM)
Average77 °F58%30.09 "Hg
* Reported Jun 21 6:15 AM — Jul 6 6:20 AM, Verona, Weather by CustomWeather, © 2015

Note: Actual official high and low records may vary slightly from our data, if they occured in-between our weather recording intervals... More about our weather records

Advertising

Verona weather history for previous 24 hours

 ConditionsComfort  
Time TempWeatherWind HumidityBarometerVisibility
6:20 AM
Mon, Jul 6
73 °FClear.2 mph83%30.04 "Hg4 mi
5:50 AM73 °FClear.1 mph83%30.04 "Hg5 mi
5:20 AM75 °FClear.2 mph78%30.04 "Hg10 mi
4:50 AM75 °FClear.3 mph78%30.04 "Hg10 mi
4:20 AM75 °FClear.3 mph78%30.04 "Hg10 mi
3:50 AM75 °FClear.2 mph78%30.04 "Hg10 mi
3:20 AM75 °FClear.2 mph78%30.04 "Hg10 mi
2:50 AM77 °FClear.2 mph74%30.04 "Hg10 mi
2:20 AM77 °FClear.2 mph74%30.04 "Hg10 mi
1:50 AM79 °FClear.5 mph70%30.04 "Hg10 mi
1:20 AM79 °FClear.2 mph70%30.04 "Hg10 mi
12:50 AM79 °FPassing clouds.8 mph70%30.04 "HgN/A
12:20 AM81 °FPassing clouds.3 mph70%30.07 "HgN/A
11:50 PM
Sun, Jul 5
81 °FClear.3 mph70%30.07 "Hg10 mi
11:20 PM81 °FClear.2 mph70%30.07 "Hg10 mi
10:50 PM81 °FClear.5 mph70%30.04 "Hg10 mi
10:20 PM82 °FClear.1 mph70%30.04 "Hg10 mi
9:50 PM84 °FPassing clouds.2 mph66%30.01 "HgN/A
9:20 PM86 °FPassing clouds.5 mph59%30.01 "HgN/A
8:50 PM86 °FPassing clouds.3 mph59%30.01 "HgN/A
8:20 PM90 °FPassing clouds.2 mph52%30.01 "HgN/A
7:50 PM91 °FScattered clouds.3 mph46%30.04 "HgN/A
7:20 PM91 °FScattered clouds.3 mph46%30.01 "HgN/A
6:50 PM91 °FPassing clouds.5 mph46%30.01 "HgN/A
6:20 PM93 °FPassing clouds.5 mph44%30.01 "HgN/A
5:50 PM93 °FPassing clouds.5 mph47%30.01 "HgN/A
5:20 PM93 °FPassing clouds.6 mph47%30.04 "HgN/A
4:50 PM93 °FPassing clouds.5 mph47%30.04 "HgN/A
4:20 PM93 °FPassing clouds.3 mph47%30.04 "HgN/A
3:50 PM93 °FSunny.3 mph47%30.04 "Hg10 mi
2:50 PM91 °FPassing clouds.6 mph49%30.07 "HgN/A
2:20 PM91 °FPassing clouds.5 mph49%30.07 "HgN/A
1:50 PM91 °FPassing clouds.5 mph49%30.07 "HgN/A
12:50 PM90 °FPassing clouds.5 mph49%30.09 "HgN/A
12:20 PM90 °FPassing clouds.5 mph55%30.09 "HgN/A
11:50 AM90 °FSunny.5 mph49%30.09 "Hg10 mi
11:20 AM88 °FPassing clouds.5 mph55%30.09 "HgN/A
10:50 AM88 °FPassing clouds.8 mph52%30.09 "HgN/A
10:20 AM88 °FPassing clouds.3 mph52%30.09 "HgN/A
9:50 AM88 °FSunny.2 mph49%30.09 "Hg10 mi
9:20 AM88 °FSunny.1 mph46%30.09 "Hg10 mi
8:50 AM86 °FSunny.2 mph46%30.09 "Hg10 mi
7:50 AM81 °FPassing clouds.3 mph66%30.09 "HgN/A
7:20 AM77 °FSunny.3 mph69%30.09 "Hg10 mi
Weather by CustomWeather, © 2015

See weather overviewHow to use our weather pages